CST,Max TemperatureF,Mean TemperatureF,Min TemperatureF,Max Dew PointF,MeanDew PointF,Min DewpointF,Max Humidity, Mean Humidity, Min Humidity, Max Sea Level PressureIn, Mean Sea Level PressureIn, Min Sea Level PressureIn, Max VisibilityMiles, Mean VisibilityMiles, Min VisibilityMiles, Max Wind SpeedMPH, Mean Wind SpeedMPH, Max Gust SpeedMPH,PrecipitationIn, CloudCover, Events, WindDirDegrees
2012-11-1,53,46,37,40,38,34,93,80,55,30.06,29.99,29.96,10,6,1,17,7,25,0.00,5,,27
2012-11-2,48,42,35,36,32,30,94,71,55,30.12,29.99,29.91,10,9,2,12,7,16,0.00,3,,64
2012-11-3,53,38,24,37,32,23,93,73,51,30.21,30.17,30.12,10,9,2,8,3,,0.00,3,,359
2012-11-4,52,42,31,39,35,28,92,77,56,30.17,30.08,30.01,10,9,5,12,2,17,0.03,4,Rain,351
2012-11-5,42,39,36,36,34,32,90,82,70,30.20,30.12,29.97,10,10,7,16,11,23,0.03,7,Rain,336
2012-11-6,57,44,30,40,29,22,86,58,27,30.13,30.05,29.94,10,10,7,30,11,40,0.03,0,Rain,324
2012-11-7,59,42,24,31,26,20,85,54,29,30.16,30.05,29.92,10,10,10,16,7,20,0.00,0,,166
2012-11-8,62,48,34,33,30,28,87,57,32,29.92,29.88,29.84,10,10,10,12,8,16,0.00,0,,301
2012-11-9,52,42,32,40,35,31,93,82,60,29.89,29.78,29.60,10,6,2,13,8,16,0.00,4,,6
2012-11-10,61,44,28,44,36,23,99,84,49,29.76,29.57,29.43,10,6,0,31,8,37,0.19,6,Fog-Rain-Snow-Thunderstorm,316
2012-11-11,30,24,19,22,12,8,79,60,41,30.16,29.99,29.77,10,10,10,26,18,36,0.03,2,,318
2012-11-12,42,30,18,16,13,11,83,58,28,30.32,30.24,30.16,10,10,10,22,8,31,0.00,0,,294
2012-11-13,52,33,14,25,18,11,85,56,24,30.32,30.25,30.18,10,10,10,12,2,,0.00,2,,166
2012-11-14,56,38,19,30,24,16,88,63,32,30.27,30.20,30.12,10,10,10,9,4,,0.00,0,,176
2012-11-15,56,40,24,32,27,21,89,60,32,30.45,30.31,30.15,10,10,10,14,4,20,0.00,1,,345
2012-11-16,56,36,16,32,26,14,90,69,37,30.45,30.33,30.21,10,10,10,20,5,26,0.00,0,,168
2012-11-17,60,48,35,36,33,30,81,61,37,30.21,30.12,30.06,10,10,10,22,9,29,0.00,0,,168
2012-11-18,60,46,33,36,33,30,87,66,37,30.07,30.01,29.96,10,10,10,20,7,25,0.00,0,,156
2012-11-19,63,45,27,37,32,25,94,66,32,30.17,30.05,29.96,10,10,5,22,6,26,0.00,0,,329
2012-11-20,68,46,23,35,30,20,89,56,25,30.21,30.13,30.06,10,10,10,16,6,18,0.00,0,,175
2012-11-21,71,54,38,37,34,30,77,51,23,30.06,29.91,29.76,10,10,7,25,8,32,0.00,0,,165
2012-11-22,56,44,31,37,29,14,85,57,31,30.33,29.97,29.72,10,10,10,31,9,40,0.00,0,,324
2012-11-23,36,25,14,12,10,6,77,55,31,30.52,30.43,30.34,10,10,5,29,17,36,0.00,0,,324
2012-11-24,47,31,15,23,17,9,77,52,34,30.33,30.00,29.83,10,10,10,18,7,23,0.00,1,,168
2012-11-25,42,36,29,29,25,20,73,62,47,30.15,30.00,29.89,10,10,10,12,5,16,0.00,5,,3
2012-11-26,33,22,10,25,17,7,89,75,62,30.44,30.34,30.15,10,8,2,16,10,24,0.00,4,Snow,355
2012-11-27,42,27,12,29,21,10,91,81,57,30.37,30.24,30.13,10,10,7,16,4,23,0.00,0,,239
2012-11-28,49,30,12,28,22,9,91,70,36,30.32,30.20,30.03,10,10,10,18,5,22,0.00,0,,183
2012-11-29,57,38,18,31,25,16,89,67,33,30.03,29.95,29.86,10,10,7,13,2,,0.00,0,,240
2012-11-30,48,36,23,30,26,21,89,72,46,30.09,30.01,29.90,10,8,5,16,9,17,0.00,0,,60